Location: Pic du Midi - T1M
(42.9366°N, 0.1426°E)
Time: 03:38:55
(UTC+01:00)

Tiangong - Visible Passes

Search period start: 03 October 2022 00:00
Search period end: 13 October 2022 00:00
Orbit: 381 x 385 km, 41.5° (Epoch: 02 October)

Date Brightness Start Highest point End Pass type
(mag) Time Alt. Az. Time Alt. Az. Time Alt. Az.
08 Oct -0.6 19:46:05 10° SSW 19:48:35 22° SSE 19:48:41 22° SSE visible
09 Oct -0.5 20:21:56 10° WSW 20:23:41 28° SW 20:23:41 28° SW visible
10 Oct -1.1 19:21:59 10° SW 19:24:50 32° SSE 19:26:24 20° ESE visible
10 Oct 1.2 20:58:18 10° W 20:58:35 12° W 20:58:35 12° W visible
11 Oct -2.0 19:58:09 10° WSW 20:01:14 58° S 20:01:14 58° S visible
12 Oct -1.6 18:58:01 10° WSW 19:01:03 45° SSE 19:03:49 12° E visible
12 Oct 0.2 20:34:36 10° W 20:35:59 24° W 20:35:59 24° W visible
